| time (UTC) | temp F | wind direction | speed knots | gust knots | rain 1hr in | rain 24hr in | rain mn in | humidity % | barometer mb |
| 20260504021602 | 43 | 235 | 5.2 | 0.0 | 0.00 | 0.00 | 0.00 | 70 | 1019.8 |
| 20260504021535 | 43 | 225 | 5.2 | 0.0 | 0.00 | 0.00 | 0.00 | 70 | 1019.8 |
| 20260504021033 | 44 | 234 | 6.1 | 0.0 | 0.00 | 0.00 | 0.00 | 70 | 1019.8 |
| 20260504021005 | 43 | 225 | 6.1 | 8.7 | 0.00 | 0.00 | 0.00 | 70 | 1019.6 |
| 20260504020547 | 44 | 217 | 6.1 | 0.0 | 0.00 | 0.00 | 0.00 | 70 | 1019.8 |
| 20260504020110 | 43 | 227 | 5.2 | 0.0 | 0.00 | 0.00 | 0.00 | 70 | 1019.9 |
| 20260504020036 | 43 | 219 | 5.2 | 0.0 | 0.00 | 0.00 | 0.00 | 70 | 1019.9 |
| 20260504015552 | 43 | 225 | 5.2 | 0.0 | 0.00 | 0.00 | 0.00 | 71 | 1019.8 |
| 20260504015041 | 43 | 215 | 5.2 | 0.0 | 0.00 | 0.00 | 0.00 | 71 | 1019.9 |
| 20260504015005 | 43 | 225 | 5.2 | 7.0 | 0.00 | 0.00 | 0.00 | 71 | 1019.6 |
| 20260504014559 | 43 | 236 | 4.3 | 0.0 | 0.00 | 0.00 | 0.00 | 71 | 1019.9 |
| 20260504014531 | 43 | 225 | 4.3 | 0.0 | 0.00 | 0.00 | 0.00 | 71 | 1019.8 |
| 20260504014025 | 43 | 222 | 4.3 | 0.0 | 0.00 | 0.00 | 0.00 | 71 | 1019.9 |
| 20260504014005 | 43 | 226 | 4.3 | 6.1 | 0.00 | 0.00 | 0.00 | 71 | 1019.7 |
| 20260504013540 | 43 | 229 | 4.3 | 0.0 | 0.00 | 0.00 | 0.00 | 72 | 1019.8 |
| 20260504013049 | 42 | 237 | 4.3 | 0.0 | 0.00 | 0.00 | 0.00 | 72 | 1019.9 |
| 20260504013028 | 43 | 232 | 4.3 | 0.0 | 0.00 | 0.00 | 0.00 | 72 | 1019.9 |
| 20260504013005 | 43 | 234 | 4.3 | 7.0 | 0.00 | 0.00 | 0.00 | 72 | 1019.7 |
| 20260504012521 | 43 | 233 | 4.3 | 0.0 | 0.00 | 0.00 | 0.00 | 72 | 1019.8 |
| 20260504012038 | 43 | 244 | 4.3 | 0.0 | 0.00 | 0.00 | 0.00 | 72 | 1019.8 |
| 20260504012005 | 43 | 243 | 4.3 | 7.0 | 0.00 | 0.00 | 0.00 | 73 | 1019.4 |
| 20260504011555 | 42 | 225 | 4.3 | 0.0 | 0.00 | 0.00 | 0.00 | 73 | 1019.8 |
| 20260504011528 | 43 | 237 | 4.3 | 0.0 | 0.00 | 0.00 | 0.00 | 73 | 1019.8 |
| 20260504011109 | 43 | 239 | 4.3 | 0.0 | 0.00 | 0.00 | 0.00 | 73 | 1019.7 |
| 20260504011005 | 42 | 238 | 4.3 | 6.1 | 0.00 | 0.00 | 0.00 | 73 | 1019.5 |
| 20260504010538 | 42 | 228 | 4.3 | 0.0 | 0.00 | 0.00 | 0.00 | 73 | 1019.7 |
| 20260504010033 | 42 | 228 | 3.5 | 0.0 | 0.00 | 0.00 | 0.00 | 74 | 1019.7 |
| 20260504010009 | 42 | 236 | 3.5 | 0.0 | 0.00 | 0.00 | 0.00 | 74 | 1019.7 |
| 20260504010005 | 42 | 232 | 2.6 | 5.2 | 0.00 | 0.00 | 0.00 | 73 | 1019.4 |
| 20260504005537 | 42 | 221 | 3.5 | 0.0 | 0.00 | 0.00 | 0.00 | 73 | 1019.6 |
| 20260504005033 | 42 | 202 | 2.6 | 0.0 | 0.00 | 0.00 | 0.00 | 73 | 1019.6 |
| 20260504005005 | 42 | 201 | 2.6 | 4.3 | 0.00 | 0.00 | 0.00 | 73 | 1019.5 |
| 20260504004543 | 43 | 151 | 2.6 | 0.0 | 0.00 | 0.00 | 0.00 | 73 | 1019.6 |
| 20260504004517 | 42 | 146 | 2.6 | 0.0 | 0.00 | 0.00 | 0.00 | 73 | 1019.6 |
| 20260504004034 | 43 | 222 | 3.5 | 0.0 | 0.00 | 0.00 | 0.00 | 72 | 1019.7 |
| 20260504004004 | 43 | 222 | 1.7 | 5.2 | 0.00 | 0.00 | 0.00 | 72 | 1019.2 |
| 20260504003525 | 43 | 229 | 3.5 | 0.0 | 0.00 | 0.00 | 0.00 | 72 | 1019.7 |
| 20260504003040 | 43 | 234 | 1.7 | 0.0 | 0.00 | 0.00 | 0.00 | 72 | 1019.7 |
| 20260504003019 | 43 | 231 | 1.7 | 0.0 | 0.00 | 0.00 | 0.00 | 72 | 1019.7 |
| 20260504003005 | 43 | 243 | 2.6 | 2.6 | 0.00 | 0.00 | 0.00 | 72 | 1019.4 |
| 20260504002551 | 44 | 229 | 1.7 | 0.0 | 0.00 | 0.00 | 0.00 | 72 | 1019.7 |
| 20260504002026 | 44 | 229 | 2.6 | 0.0 | 0.00 | 0.00 | 0.00 | 71 | 1019.8 |
| 20260504002005 | 44 | 229 | 2.6 | 2.6 | 0.00 | 0.00 | 0.00 | 71 | 1019.5 |
| 20260504001543 | 44 | 229 | 2.6 | 0.0 | 0.00 | 0.00 | 0.00 | 70 | 1019.6 |
| 20260504001505 | 43 | 229 | 2.6 | 0.0 | 0.00 | 0.00 | 0.00 | 70 | 1019.7 |
| 20260504001031 | 44 | 320 | 3.5 | 0.0 | 0.00 | 0.00 | 0.00 | 70 | 1019.7 |
| 20260504001005 | 44 | 355 | 2.6 | 6.1 | 0.00 | 0.00 | 0.00 | 70 | 1019.4 |
| 20260504000527 | 44 | 202 | 4.3 | 0.0 | 0.00 | 0.00 | 0.00 | 69 | 1019.7 |
| 20260504000042 | 44 | 224 | 6.1 | 0.0 | 0.00 | 0.00 | 0.00 | 70 | 1019.7 |
| 20260504000012 | 44 | 212 | 6.1 | 0.0 | 0.00 | 0.00 | 0.00 | 70 | 1019.7 |
| 20260504000004 | 44 | 209 | 5.2 | 10.4 | 0.00 | 0.00 | 0.00 | 70 | 1019.2 |
| 20260503235556 | 44 | 227 | 6.1 | 0.0 | 0.00 | 0.00 | 0.00 | 70 | 1019.5 |
| 20260503235025 | 44 | 221 | 5.2 | 0.0 | 0.00 | 0.00 | 0.00 | 70 | 1019.6 |
| 20260503235004 | 44 | 226 | 6.1 | 8.7 | 0.00 | 0.00 | 0.00 | 70 | 1019.2 |
| 20260503234626 | 43 | 225 | 5.2 | 0.0 | 0.00 | 0.00 | 0.00 | 71 | 1019.5 |
| 20260503234559 | 43 | 229 | 5.2 | 0.0 | 0.00 | 0.00 | 0.00 | 71 | 1019.6 |
| 20260503234031 | 43 | 238 | 4.3 | 0.0 | 0.00 | 0.00 | 0.00 | 72 | 1019.5 |
| 20260503234005 | 43 | 224 | 5.2 | 7.8 | 0.00 | 0.00 | 0.00 | 72 | 1019.3 |
| 20260503233523 | 43 | 195 | 5.2 | 0.0 | 0.00 | 0.00 | 0.00 | 72 | 1019.5 |
| 20260503233109 | 43 | 229 | 5.2 | 0.0 | 0.00 | 0.00 | 0.00 | 72 | 1019.7 |
| 20260503233040 | 43 | 232 | 5.2 | 0.0 | 0.00 | 0.00 | 0.00 | 72 | 1019.6 |
| 20260503233005 | 43 | 236 | 4.3 | 7.8 | 0.00 | 0.00 | 0.00 | 72 | 1019.3 |
| 20260503232538 | 43 | 241 | 4.3 | 0.0 | 0.00 | 0.00 | 0.00 | 72 | 1019.6 |
| 20260503232025 | 44 | 257 | 4.3 | 0.0 | 0.00 | 0.00 | 0.00 | 71 | 1019.6 |
| 20260503232005 | 44 | 251 | 4.3 | 7.0 | 0.00 | 0.00 | 0.00 | 71 | 1019.3 |
| 20260503231617 | 44 | 277 | 4.3 | 0.0 | 0.00 | 0.00 | 0.00 | 70 | 1019.7 |
| 20260503231541 | 44 | 267 | 4.3 | 0.0 | 0.00 | 0.00 | 0.00 | 70 | 1019.6 |
| 20260503231059 | 45 | 288 | 4.3 | 0.0 | 0.00 | 0.00 | 0.00 | 69 | 1019.5 |
| 20260503231004 | 45 | 272 | 3.5 | 8.7 | 0.00 | 0.00 | 0.00 | 69 | 1019.2 |
| 20260503230558 | 45 | 294 | 5.2 | 0.0 | 0.00 | 0.00 | 0.00 | 68 | 1019.4 |
| 20260503230047 | 45 | 306 | 5.2 | 0.0 | 0.00 | 0.00 | 0.00 | 69 | 1019.6 |
| 20260503230017 | 44 | 293 | 5.2 | 0.0 | 0.00 | 0.00 | 0.00 | 69 | 1019.5 |
| 20260503225533 | 45 | 207 | 5.2 | 0.0 | 0.00 | 0.00 | 0.00 | 68 | 1019.5 |
| 20260503225029 | 45 | 200 | 6.1 | 0.0 | 0.00 | 0.00 | 0.00 | 68 | 1019.5 |
| 20260503225005 | 45 | 209 | 5.2 | 7.8 | 0.00 | 0.00 | 0.00 | 68 | 1019.2 |
| 20260503224538 | 45 | 199 | 5.2 | 0.0 | 0.00 | 0.00 | 0.00 | 68 | 1019.4 |
| 20260503224518 | 44 | 208 | 5.2 | 0.0 | 0.00 | 0.00 | 0.00 | 68 | 1019.5 |
| 20260503224029 | 45 | 211 | 4.3 | 0.0 | 0.00 | 0.00 | 0.00 | 68 | 1019.4 |
| 20260503224005 | 45 | 204 | 5.2 | 7.0 | 0.00 | 0.00 | 0.00 | 68 | 1019.2 |
| 20260503223539 | 45 | 211 | 3.5 | 0.0 | 0.00 | 0.00 | 0.00 | 68 | 1019.6 |
| 20260503223057 | 45 | 234 | 3.5 | 0.0 | 0.00 | 0.00 | 0.00 | 68 | 1019.6 |
| 20260503223007 | 45 | 232 | 3.5 | 0.0 | 0.00 | 0.00 | 0.00 | 68 | 1019.5 |
| 20260503223005 | 45 | 233 | 2.6 | 7.0 | 0.00 | 0.00 | 0.00 | 68 | 1019.3 |
| 20260503222526 | 45 | 232 | 3.5 | 0.0 | 0.00 | 0.00 | 0.00 | 68 | 1019.6 |
| 20260503222041 | 45 | 223 | 4.3 | 0.0 | 0.00 | 0.00 | 0.00 | 68 | 1019.7 |
| 20260503222006 | 45 | 227 | 2.6 | 7.8 | 0.00 | 0.00 | 0.00 | 68 | 1019.4 |
| 20260503221536 | 45 | 224 | 4.3 | 0.0 | 0.00 | 0.00 | 0.00 | 69 | 1019.5 |
| 20260503221512 | 44 | 223 | 4.3 | 0.0 | 0.00 | 0.00 | 0.00 | 69 | 1019.6 |
| 20260503221042 | 45 | 217 | 3.5 | 0.0 | 0.00 | 0.00 | 0.00 | 70 | 1019.5 |
| 20260503221005 | 45 | 216 | 3.5 | 5.2 | 0.00 | 0.00 | 0.00 | 70 | 1019.2 |
| 20260503220538 | 45 | 207 | 3.5 | 0.0 | 0.00 | 0.00 | 0.00 | 70 | 1019.5 |
| 20260503220048 | 45 | 206 | 2.6 | 0.0 | 0.00 | 0.00 | 0.00 | 70 | 1019.6 |
| 20260503220008 | 45 | 207 | 2.6 | 0.0 | 0.00 | 0.00 | 0.00 | 70 | 1019.7 |
| 20260503215939 | 45 | 208 | 3.5 | 4.3 | 0.00 | 0.00 | 0.00 | 70 | 1019.2 |
| 20260503215522 | 46 | 223 | 1.7 | 0.0 | 0.00 | 0.00 | 0.00 | 70 | 1019.5 |
| 20260503215015 | 46 | 275 | 1.7 | 0.0 | 0.00 | 0.00 | 0.00 | 70 | 1019.4 |
| 20260503214937 | 46 | 275 | 0.9 | 5.2 | 0.00 | 0.00 | 0.00 | 70 | 1019.1 |
| 20260503214631 | 46 | 275 | 2.6 | 0.0 | 0.00 | 0.00 | 0.00 | 69 | 1019.5 |
| 20260503214532 | 46 | 275 | 2.6 | 0.0 | 0.00 | 0.00 | 0.00 | 69 | 1019.5 |
| 20260503213959 | 47 | 277 | 3.5 | 0.0 | 0.00 | 0.00 | 0.00 | 68 | 1019.5 |
| 20260503213938 | 47 | 278 | 3.5 | 8.7 | 0.00 | 0.00 | 0.00 | 68 | 1019.1 |
| 20260503213513 | 47 | 297 | 5.2 | 0.0 | 0.00 | 0.00 | 0.00 | 67 | 1019.4 |
| 20260503213112 | 47 | 290 | 5.2 | 0.0 | 0.00 | 0.00 | 0.00 | 65 | 1019.4 |
| 20260503213009 | 47 | 297 | 4.3 | 0.0 | 0.00 | 0.00 | 0.00 | 65 | 1019.2 |
| 20260503212937 | 47 | 289 | 6.1 | 8.7 | 0.00 | 0.00 | 0.00 | 65 | 1019.0 |
| 20260503212513 | 48 | 308 | 2.6 | 0.0 | 0.00 | 0.00 | 0.00 | 64 | 1019.4 |
| 20260503212009 | 48 | 211 | 2.6 | 0.0 | 0.00 | 0.00 | 0.00 | 60 | 1019.4 |
| 20260503211513 | 48 | 162 | 3.5 | 0.0 | 0.00 | 0.00 | 0.00 | 60 | 1019.2 |
| 20260503211458 | 49 | 176 | 3.5 | 0.0 | 0.00 | 0.00 | 0.00 | 60 | 1019.2 |
| 20260503211013 | 49 | 162 | 3.5 | 0.0 | 0.00 | 0.00 | 0.00 | 59 | 1019.3 |
| 20260503210937 | 49 | 161 | 2.6 | 5.2 | 0.00 | 0.00 | 0.00 | 59 | 1018.9 |
| 20260503210510 | 49 | 171 | 4.3 | 0.0 | 0.00 | 0.00 | 0.00 | 59 | 1019.3 |
| 20260503210019 | 48 | 171 | 3.5 | 0.0 | 0.00 | 0.00 | 0.00 | 59 | 1019.2 |
| 20260503210000 | 49 | 167 | 3.5 | 0.0 | 0.00 | 0.00 | 0.00 | 59 | 1019.2 |
| 20260503205512 | 49 | 163 | 3.5 | 0.0 | 0.00 | 0.00 | 0.00 | 59 | 1019.1 |
| 20260503205029 | 49 | 164 | 3.5 | 0.0 | 0.00 | 0.00 | 0.00 | 59 | 1019.1 |
| 20260503204938 | 49 | 161 | 4.3 | 6.1 | 0.00 | 0.00 | 0.00 | 59 | 1018.8 |
| 20260503204604 | 49 | 155 | 3.5 | 0.0 | 0.00 | 0.00 | 0.00 | 58 | 1019.2 |
| 20260503204503 | 49 | 157 | 3.5 | 0.0 | 0.00 | 0.00 | 0.00 | 58 | 1019.2 |
| 20260503204019 | 49 | 146 | 2.6 | 0.0 | 0.00 | 0.00 | 0.00 | 59 | 1019.3 |
| 20260503203511 | 50 | 136 | 3.5 | 0.0 | 0.00 | 0.00 | 0.00 | 59 | 1019.4 |
| 20260503203109 | 49 | 148 | 3.5 | 0.0 | 0.00 | 0.00 | 0.00 | 58 | 1019.4 |
| 20260503203007 | 50 | 154 | 3.5 | 0.0 | 0.00 | 0.00 | 0.00 | 58 | 1019.3 |
| 20260503202937 | 50 | 156 | 4.3 | 5.2 | 0.00 | 0.00 | 0.00 | 58 | 1019.0 |
| 20260503202509 | 50 | 157 | 4.3 | 0.0 | 0.00 | 0.00 | 0.00 | 58 | 1019.2 |
| 20260503202005 | 50 | 169 | 5.2 | 0.0 | 0.00 | 0.00 | 0.00 | 57 | 1019.2 |
| 20260503201938 | 50 | 156 | 4.3 | 8.7 | 0.00 | 0.00 | 0.00 | 57 | 1018.9 |
| 20260503201609 | 50 | 149 | 5.2 | 0.0 | 0.00 | 0.00 | 0.00 | 57 | 1019.3 |
| 20260503201519 | 50 | 175 | 5.2 | 0.0 | 0.00 | 0.00 | 0.00 | 58 | 1019.3 |
| 20260503201008 | 50 | 147 | 4.3 | 0.0 | 0.00 | 0.00 | 0.00 | 58 | 1019.5 |
| 20260503200937 | 50 | 149 | 5.2 | 7.0 | 0.00 | 0.00 | 0.00 | 58 | 1018.9 |
| 20260503200505 | 51 | 173 | 4.3 | 0.0 | 0.00 | 0.00 | 0.00 | 59 | 1019.1 |
| 20260503200115 | 50 | 150 | 3.5 | 0.0 | 0.00 | 0.00 | 0.00 | 59 | 1019.2 |
| 20260503200019 | 51 | 157 | 3.5 | 0.0 | 0.00 | 0.00 | 0.00 | 59 | 1019.2 |
| 20260503195937 | 51 | 155 | 4.3 | 7.0 | 0.00 | 0.00 | 0.00 | 59 | 1018.9 |
| 20260503195512 | 51 | 162 | 4.3 | 0.0 | 0.00 | 0.00 | 0.00 | 59 | 1019.1 |
| 20260503195005 | 52 | 150 | 6.1 | 0.0 | 0.00 | 0.00 | 0.00 | 58 | 1019.1 |
| 20260503194941 | 52 | 141 | 5.2 | 8.7 | 0.00 | 0.00 | 0.00 | 58 | 1018.9 |
| 20260503194620 | 51 | 141 | 6.1 | 0.0 | 0.00 | 0.00 | 0.00 | 58 | 1019.0 |
| 20260503194519 | 52 | 133 | 7.0 | 0.0 | 0.00 | 0.00 | 0.00 | 57 | 1019.1 |
| 20260503194008 | 52 | 137 | 7.0 | 0.0 | 0.00 | 0.00 | 0.00 | 58 | 1018.9 |
| 20260503193938 | 52 | 134 | 6.1 | 8.7 | 0.00 | 0.00 | 0.00 | 58 | 1018.8 |
| 20260503193505 | 52 | 147 | 6.1 | 0.0 | 0.00 | 0.00 | 0.00 | 58 | 1019.0 |
| 20260503193122 | 51 | 126 | 6.1 | 0.0 | 0.00 | 0.00 | 0.00 | 58 | 1019.2 |
| 20260503193017 | 52 | 123 | 6.1 | 0.0 | 0.00 | 0.00 | 0.00 | 58 | 1019.1 |
| 20260503192941 | 52 | 128 | 6.1 | 8.7 | 0.00 | 0.00 | 0.00 | 59 | 1018.8 |
| 20260503192508 | 52 | 128 | 5.2 | 0.0 | 0.00 | 0.00 | 0.00 | 58 | 1019.1 |
| 20260503192000 | 53 | 134 | 5.2 | 0.0 | 0.00 | 0.00 | 0.00 | 58 | 1019.1 |
| 20260503191522 | 53 | 136 | 6.1 | 0.0 | 0.00 | 0.00 | 0.00 | 57 | 1019.2 |
| 20260503191507 | 53 | 128 | 6.1 | 0.0 | 0.00 | 0.00 | 0.00 | 57 | 1019.2 |
| 20260503190956 | 54 | 138 | 6.1 | 0.0 | 0.00 | 0.00 | 0.00 | 55 | 1019.1 |
| 20260503190937 | 54 | 134 | 6.1 | 7.8 | 0.00 | 0.00 | 0.00 | 55 | 1018.8 |
| 20260503190511 | 54 | 134 | 6.1 | 0.0 | 0.00 | 0.00 | 0.00 | 54 | 1019.1 |
| 20260503190122 | 54 | 128 | 6.1 | 0.0 | 0.00 | 0.00 | 0.00 | 54 | 1019.0 |
| 20260503190025 | 54 | 124 | 6.1 | 0.0 | 0.00 | 0.00 | 0.00 | 54 | 1019.1 |
| 20260503185938 | 54 | 129 | 5.2 | 8.7 | 0.00 | 0.00 | 0.00 | 53 | 1018.8 |
| 20260503185538 | 55 | 131 | 7.0 | 0.0 | 0.00 | 0.00 | 0.00 | 53 | 1019.0 |
| 20260503185026 | 55 | 129 | 7.0 | 0.0 | 0.00 | 0.00 | 0.00 | 53 | 1019.1 |
| 20260503184937 | 55 | 124 | 6.1 | 10.4 | 0.00 | 0.00 | 0.00 | 53 | 1018.8 |
| 20260503184549 | 55 | 131 | 7.0 | 0.0 | 0.00 | 0.00 | 0.00 | 52 | 1019.2 |
| 20260503184523 | 55 | 137 | 7.0 | 0.0 | 0.00 | 0.00 | 0.00 | 52 | 1018.9 |
| 20260503184042 | 55 | 125 | 7.0 | 0.0 | 0.00 | 0.00 | 0.00 | 52 | 1018.8 |
| 20260503183937 | 55 | 129 | 7.0 | 10.4 | 0.00 | 0.00 | 0.00 | 52 | 1018.7 |
| 20260503183511 | 55 | 136 | 7.8 | 0.0 | 0.00 | 0.00 | 0.00 | 52 | 1018.7 |
| 20260503183117 | 55 | 124 | 6.1 | 0.0 | 0.00 | 0.00 | 0.00 | 53 | 1018.8 |
| 20260503183007 | 55 | 135 | 6.1 | 0.0 | 0.00 | 0.00 | 0.00 | 53 | 1018.9 |
| 20260503182937 | 55 | 135 | 7.8 | 10.4 | 0.00 | 0.00 | 0.00 | 53 | 1018.5 |
| 20260503182511 | 55 | 137 | 5.2 | 0.0 | 0.00 | 0.00 | 0.00 | 53 | 1018.8 |
| 20260503182009 | 56 | 126 | 5.2 | 0.0 | 0.00 | 0.00 | 0.00 | 53 | 1018.7 |
| 20260503181939 | 56 | 127 | 4.3 | 7.8 | 0.00 | 0.00 | 0.00 | 53 | 1018.6 |
| 20260503181636 | 55 | 123 | 6.1 | 0.0 | 0.00 | 0.00 | 0.00 | 51 | 1018.6 |
| 20260503181525 | 56 | 121 | 7.0 | 0.0 | 0.00 | 0.00 | 0.00 | 51 | 1018.7 |
| 20260503181024 | 56 | 123 | 7.0 | 0.0 | 0.00 | 0.00 | 0.00 | 50 | 1018.6 |
| 20260503180511 | 56 | 134 | 7.0 | 0.0 | 0.00 | 0.00 | 0.00 | 49 | 1018.4 |
| 20260503180050 | 55 | 130 | 6.1 | 0.0 | 0.00 | 0.00 | 0.00 | 49 | 1018.5 |
| 20260503180009 | 56 | 125 | 5.2 | 0.0 | 0.00 | 0.00 | 0.00 | 50 | 1018.5 |
| 20260503175938 | 56 | 128 | 7.0 | 8.7 | 0.00 | 0.00 | 0.00 | 50 | 1018.2 |
| 20260503175527 | 56 | 128 | 4.3 | 0.0 | 0.00 | 0.00 | 0.00 | 52 | 1018.4 |
| 20260503175023 | 56 | 131 | 4.3 | 0.0 | 0.00 | 0.00 | 0.00 | 52 | 1018.4 |
| 20260503174610 | 56 | 136 | 5.2 | 0.0 | 0.00 | 0.00 | 0.00 | 53 | 1018.5 |
| 20260503174510 | 56 | 132 | 5.2 | 0.0 | 0.00 | 0.00 | 0.00 | 53 | 1018.5 |
| 20260503174003 | 56 | 136 | 4.3 | 0.0 | 0.00 | 0.00 | 0.00 | 52 | 1018.4 |
| 20260503173938 | 56 | 138 | 5.2 | 7.0 | 0.00 | 0.00 | 0.00 | 52 | 1018.1 |
| 20260503173516 | 56 | 146 | 4.3 | 0.0 | 0.00 | 0.00 | 0.00 | 52 | 1018.4 |
| 20260503173116 | 56 | 149 | 4.3 | 0.0 | 0.00 | 0.00 | 0.00 | 52 | 1018.2 |
| 20260503173012 | 57 | 141 | 4.3 | 0.0 | 0.00 | 0.00 | 0.00 | 51 | 1018.3 |
| 20260503172938 | 57 | 142 | 4.3 | 7.0 | 0.00 | 0.00 | 0.00 | 52 | 1017.8 |
| 20260503172503 | 57 | 140 | 4.3 | 0.0 | 0.00 | 0.00 | 0.00 | 52 | 1018.3 |
| 20260503172013 | 57 | 135 | 4.3 | 0.0 | 0.00 | 0.00 | 0.00 | 52 | 1018.1 |
| 20260503171937 | 57 | 149 | 4.3 | 7.0 | 0.00 | 0.00 | 0.00 | 52 | 1017.9 |
| 20260503171523 | 57 | 147 | 3.5 | 0.0 | 0.00 | 0.00 | 0.00 | 50 | 1018.1 |
| 20260503171503 | 58 | 133 | 3.5 | 0.0 | 0.00 | 0.00 | 0.00 | 52 | 1018.0 |
| 20260503171013 | 58 | 132 | 2.6 | 0.0 | 0.00 | 0.00 | 0.00 | 51 | 1018.1 |
| 20260503170938 | 58 | 141 | 3.5 | 6.1 | 0.00 | 0.00 | 0.00 | 51 | 1017.5 |
| 20260503170513 | 58 | 126 | 3.5 | 0.0 | 0.00 | 0.00 | 0.00 | 49 | 1017.9 |
| 20260503160125 | 63 | 73 | 7.8 | 0.0 | 0.00 | 0.00 | 0.00 | 35 | 1017.4 |
| 20260503150938 | 64 | 59 | 8.7 | 12.2 | 0.00 | 0.00 | 0.00 | 35 | 1017.0 |
| 20260503150511 | 64 | 53 | 5.2 | 0.0 | 0.00 | 0.00 | 0.00 | 35 | 1017.2 |
| 20260503140107 | 64 | 65 | 8.7 | 0.0 | 0.00 | 0.00 | 0.00 | 33 | 1017.6 |
| 20260503131002 | 65 | 132 | 5.2 | 0.0 | 0.00 | 0.00 | 0.00 | 36 | 1017.7 |
| 20260503130938 | 65 | 57 | 5.2 | 15.6 | 0.00 | 0.00 | 0.00 | 35 | 1017.5 |
| 20260503130514 | 65 | 36 | 5.2 | 0.0 | 0.00 | 0.00 | 0.00 | 33 | 1017.7 |
| 20260503130135 | 64 | 313 | 4.3 | 0.0 | 0.00 | 0.00 | 0.00 | 32 | 1018.0 |
| 20260503110526 | 64 | 349 | 6.1 | 0.0 | 0.00 | 0.00 | 0.00 | 34 | 1018.7 |
| 20260503110106 | 63 | 268 | 5.2 | 0.0 | 0.00 | 0.00 | 0.00 | 41 | 1018.8 |
| 20260503100111 | 60 | 182 | 2.6 | 0.0 | 0.00 | 0.00 | 0.00 | 38 | 1018.8 |
| 20260503090513 | 59 | 13 | 3.5 | 0.0 | 0.00 | 0.00 | 0.00 | 40 | 1019.5 |
| 20260503081548 | 57 | 307 | 3.5 | 0.0 | 0.00 | 0.00 | 0.00 | 46 | 1019.7 |
| 20260503081509 | 58 | 309 | 3.5 | 0.0 | 0.00 | 0.00 | 0.00 | 49 | 1019.7 |
| 20260503081001 | 57 | 331 | 2.6 | 0.0 | 0.00 | 0.00 | 0.00 | 48 | 1019.7 |
| 20260503080939 | 57 | 340 | 2.6 | 7.0 | 0.00 | 0.00 | 0.00 | 48 | 1019.3 |
| 20260503080508 | 57 | 315 | 2.6 | 0.0 | 0.00 | 0.00 | 0.00 | 51 | 1019.7 |
| 20260503072939 | 56 | 208 | 0.9 | 4.3 | 0.00 | 0.00 | 0.00 | 50 | 1019.4 |
| 20260503072512 | 56 | 201 | 1.7 | 0.0 | 0.00 | 0.00 | 0.00 | 49 | 1019.5 |
| 20260503072029 | 56 | 287 | 1.7 | 0.0 | 0.00 | 0.00 | 0.00 | 49 | 1019.5 |
| 20260503071939 | 56 | 287 | 0.9 | 5.2 | 0.00 | 0.00 | 0.00 | 51 | 1019.3 |
| 20260503071608 | 55 | 327 | 2.6 | 0.0 | 0.00 | 0.00 | 0.00 | 50 | 1019.7 |
| 20260503071505 | 56 | 14 | 1.7 | 0.0 | 0.00 | 0.00 | 0.00 | 52 | 1019.5 |
| 20260503071013 | 56 | 334 | 3.5 | 0.0 | 0.00 | 0.00 | 0.00 | 53 | 1019.8 |
| 20260503070939 | 56 | 322 | 2.6 | 8.7 | 0.00 | 0.00 | 0.00 | 54 | 1019.4 |
| 20260503070512 | 56 | 325 | 5.2 | 0.0 | 0.00 | 0.00 | 0.00 | 52 | 1019.7 |
| 20260503070122 | 55 | 319 | 4.3 | 0.0 | 0.00 | 0.00 | 0.00 | 52 | 1019.8 |
| 20260503060124 | 51 | 309 | 2.6 | 0.0 | 0.00 | 0.00 | 0.00 | 71 | 1019.4 |
| 20260503055007 | 51 | 261 | 2.6 | 0.0 | 0.00 | 0.00 | 0.00 | 74 | 1019.2 |
| 20260503054939 | 51 | 260 | 3.5 | 5.2 | 0.00 | 0.00 | 0.00 | 75 | 1019.0 |
| 20260503054600 | 50 | 266 | 2.6 | 0.0 | 0.00 | 0.00 | 0.00 | 75 | 1019.3 |
| 20260503054503 | 51 | 286 | 2.6 | 0.0 | 0.00 | 0.00 | 0.00 | 75 | 1019.3 |
| 20260503054026 | 50 | 276 | 4.3 | 0.0 | 0.00 | 0.00 | 0.00 | 76 | 1019.4 |
| 20260503053940 | 50 | 262 | 2.6 | 7.0 | 0.00 | 0.00 | 0.00 | 77 | 1019.1 |
| 20260503053515 | 50 | 270 | 4.3 | 0.0 | 0.00 | 0.00 | 0.00 | 78 | 1019.4 |
| 20260503053106 | 50 | 267 | 4.3 | 0.0 | 0.00 | 0.00 | 0.00 | 78 | 1019.3 |
| 20260503053013 | 50 | 257 | 4.3 | 0.0 | 0.00 | 0.00 | 0.00 | 78 | 1019.2 |
| 20260503052939 | 50 | 268 | 4.3 | 7.0 | 0.00 | 0.00 | 0.00 | 78 | 1019.0 |
| 20260503052501 | 50 | 271 | 3.5 | 0.0 | 0.00 | 0.00 | 0.00 | 79 | 1019.2 |
| 20260503052013 | 50 | 296 | 2.6 | 0.0 | 0.00 | 0.00 | 0.00 | 82 | 1019.3 |
| 20260503051940 | 50 | 298 | 3.5 | 6.1 | 0.00 | 0.00 | 0.00 | 82 | 1018.9 |
| 20260503051607 | 49 | 281 | 1.7 | 0.0 | 0.00 | 0.00 | 0.00 | 83 | 1019.1 |
| 20260503051510 | 49 | 236 | 1.7 | 0.0 | 0.00 | 0.00 | 0.00 | 83 | 1019.1 |
| 20260503051023 | 49 | 234 | 1.7 | 0.0 | 0.00 | 0.00 | 0.00 | 85 | 1019.1 |
| 20260503050939 | 48 | 236 | 0.9 | 2.6 | 0.00 | 0.00 | 0.00 | 85 | 1019.0 |
| 20260503050512 | 48 | 244 | 1.7 | 0.0 | 0.00 | 0.00 | 0.00 | 86 | 1019.2 |
| 20260503050052 | 47 | 206 | 1.7 | 0.0 | 0.00 | 0.00 | 0.00 | 87 | 1019.2 |
| 20260503050005 | 48 | 222 | 0.9 | 0.0 | 0.00 | 0.00 | 0.00 | 87 | 1019.0 |
| 20260503045512 | 47 | 185 | 1.7 | 0.0 | 0.00 | 0.00 | 0.00 | 88 | 1019.1 |
| 20260503044959 | 47 | 184 | 1.7 | 0.0 | 0.00 | 0.00 | 0.00 | 89 | 1019.0 |
| 20260503044941 | 47 | 184 | 1.7 | 2.6 | 0.00 | 0.00 | 0.00 | 89 | 1018.7 |
| 20260503044544 | 46 | 165 | 0.9 | 0.0 | 0.00 | 0.00 | 0.00 | 89 | 1019.0 |
| 20260503044511 | 46 | 165 | 0.9 | 0.0 | 0.00 | 0.00 | 0.00 | 89 | 1019.0 |
| 20260503044006 | 46 | 159 | 0.0 | 0.0 | 0.00 | 0.00 | 0.00 | 90 | 1019.0 |
| 20260503043940 | 46 | 159 | 0.0 | 0.9 | 0.00 | 0.00 | 0.00 | 89 | 1018.7 |
| 20260503043510 | 45 | 159 | 0.0 | 0.0 | 0.00 | 0.00 | 0.00 | 89 | 1019.2 |
| 20260503043045 | 45 | 101 | 0.9 | 0.0 | 0.00 | 0.00 | 0.00 | 90 | 1019.1 |
| 20260503043001 | 45 | 105 | 1.7 | 0.0 | 0.00 | 0.00 | 0.00 | 90 | 1019.1 |
| 20260503042513 | 45 | 105 | 2.6 | 0.0 | 0.00 | 0.00 | 0.00 | 90 | 1019.0 |
| 20260503042001 | 44 | 98 | 2.6 | 0.0 | 0.00 | 0.00 | 0.00 | 90 | 1019.1 |
| 20260503041649 | 43 | 118 | 2.6 | 0.0 | 0.00 | 0.00 | 0.00 | 90 | 1019.0 |
| 20260503041541 | 44 | 117 | 2.6 | 0.0 | 0.00 | 0.00 | 0.00 | 90 | 1019.0 |
| 20260503041008 | 43 | 113 | 1.7 | 0.0 | 0.00 | 0.00 | 0.00 | 89 | 1019.0 |
| 20260503040506 | 43 | 122 | 1.7 | 0.0 | 0.00 | 0.00 | 0.00 | 89 | 1018.8 |
| 20260503040132 | 42 | 196 | 1.7 | 0.0 | 0.00 | 0.00 | 0.00 | 88 | 1018.9 |
| 20260503040040 | 42 | 196 | 1.7 | 0.0 | 0.00 | 0.00 | 0.00 | 88 | 1018.8 |
| 20260503035535 | 42 | 195 | 2.6 | 0.0 | 0.00 | 0.00 | 0.00 | 88 | 1018.7 |
| 20260503035003 | 42 | 182 | 2.6 | 0.0 | 0.00 | 0.00 | 0.00 | 88 | 1018.7 |
| 20260503034941 | 42 | 182 | 2.6 | 2.6 | 0.00 | 0.00 | 0.00 | 88 | 1018.3 |
| 20260503034611 | 42 | 182 | 2.6 | 0.0 | 0.00 | 0.00 | 0.00 | 88 | 1018.7 |
| 20260503034457 | 42 | 182 | 2.6 | 0.0 | 0.00 | 0.00 | 0.00 | 88 | 1018.7 |
| 20260503034015 | 42 | 183 | 2.6 | 0.0 | 0.00 | 0.00 | 0.00 | 88 | 1018.6 |
| 20260503033940 | 42 | 183 | 2.6 | 4.3 | 0.00 | 0.00 | 0.00 | 88 | 1018.3 |
| 20260503033504 | 42 | 189 | 2.6 | 0.0 | 0.00 | 0.00 | 0.00 | 88 | 1018.5 |
| 20260503033103 | 42 | 184 | 1.7 | 0.0 | 0.00 | 0.00 | 0.00 | 87 | 1018.5 |
| 20260503033016 | 42 | 184 | 1.7 | 0.0 | 0.00 | 0.00 | 0.00 | 87 | 1018.4 |
| 20260503032940 | 42 | 182 | 0.9 | 2.6 | 0.00 | 0.00 | 0.00 | 87 | 1018.2 |
| 20260503032507 | 42 | 182 | 1.7 | 0.0 | 0.00 | 0.00 | 0.00 | 87 | 1018.5 |
| 20260503032022 | 43 | 182 | 0.9 | 0.0 | 0.00 | 0.00 | 0.00 | 87 | 1018.4 |
| 20260503031940 | 43 | 116 | 0.0 | 2.6 | 0.00 | 0.00 | 0.00 | 88 | 1018.1 |
| 20260503031543 | 42 | 109 | 0.9 | 0.0 | 0.00 | 0.00 | 0.00 | 88 | 1018.4 |
| 20260503031514 | 43 | 109 | 0.9 | 0.0 | 0.00 | 0.00 | 0.00 | 87 | 1018.4 |
| 20260503031012 | 43 | 205 | 1.7 | 0.0 | 0.00 | 0.00 | 0.00 | 88 | 1018.4 |
| 20260503030531 | 43 | 212 | 1.7 | 0.0 | 0.00 | 0.00 | 0.00 | 87 | 1018.2 |
| 20260503030032 | 43 | 219 | 2.6 | 0.0 | 0.00 | 0.00 | 0.00 | 88 | 1018.2 |
| 20260503030015 | 43 | 221 | 2.6 | 0.0 | 0.00 | 0.00 | 0.00 | 88 | 1018.2 |
| 20260503025939 | 43 | 221 | 1.7 | 7.8 | 0.00 | 0.00 | 0.00 | 88 | 1018.0 |
| 20260503025513 | 43 | 232 | 3.5 | 0.0 | 0.00 | 0.00 | 0.00 | 88 | 1018.2 |
| 20260503024959 | 43 | 267 | 4.3 | 0.0 | 0.00 | 0.00 | 0.00 | 88 | 1018.3 |
| 20260503024940 | 43 | 273 | 4.3 | 7.8 | 0.00 | 0.00 | 0.00 | 88 | 1018.1 |
| 20260503024539 | 43 | 247 | 4.3 | 0.0 | 0.00 | 0.00 | 0.00 | 88 | 1018.3 |
| 20260503024511 | 43 | 248 | 5.2 | 0.0 | 0.00 | 0.00 | 0.00 | 88 | 1018.2 |
| 20260503024005 | 43 | 226 | 3.5 | 0.0 | 0.00 | 0.00 | 0.00 | 88 | 1018.1 |
| 20260503023940 | 43 | 221 | 5.2 | 7.0 | 0.00 | 0.00 | 0.00 | 88 | 1018.0 |
| 20260503023519 | 43 | 232 | 2.6 | 0.0 | 0.00 | 0.00 | 0.00 | 88 | 1018.4 |
| 20260503023046 | 43 | 238 | 3.5 | 0.0 | 0.00 | 0.00 | 0.00 | 88 | 1018.5 |
| 20260503023010 | 43 | 238 | 3.5 | 0.0 | 0.00 | 0.00 | 0.00 | 88 | 1018.4 |
| 20260503022940 | 43 | 234 | 2.6 | 5.2 | 0.00 | 0.00 | 0.00 | 88 | 1018.1 |
| 20260503022503 | 43 | 198 | 3.5 | 0.0 | 0.00 | 0.00 | 0.00 | 88 | 1018.4 |
| 20260503022010 | 43 | 225 | 2.6 | 0.0 | 0.00 | 0.00 | 0.00 | 88 | 1018.5 |
| 20260503021940 | 43 | 215 | 2.6 | 4.3 | 0.00 | 0.00 | 0.00 | 88 | 1018.2 |